Location: Derby
(52.9213°N, 1.4761°W)
Time: 14:12:32
(UTC+01:00)

Vanguard 2 - Visible Passes

Search period start: 18 May 2025 00:00
Search period end: 28 May 2025 00:00
Orbit: 553 x 2901 km, 32.9° (Epoch: 17 May)

Date Brightness Start Highest point End Pass type
(mag) Time Alt. Az. Time Alt. Az. Time Alt. Az.
18 May 10.3 01:10:44 10° SW 01:20:32 31° S 01:33:39 10° SE visible
18 May 10.7 03:18:59 10° WSW 03:29:27 25° SSW 03:41:51 10° SSE visible
18 May 10.1 23:16:49 10° SSW 23:24:25 25° SSE 23:34:53 10° ESE visible
19 May 10.3 01:23:02 10° WSW 01:32:38 30° S 01:45:25 10° SE visible
19 May 10.8 03:31:50 10° WSW 03:41:28 22° SSW 03:52:44 10° SSE visible
19 May 10.1 23:28:50 10° SW 23:36:27 26° SSE 23:47:03 10° ESE visible
20 May 10.3 01:35:27 10° WSW 01:44:45 28° S 01:57:01 10° SE visible
20 May 10.9 03:45:01 10° WSW 03:53:27 18° SSW 04:03:08 10° S visible
20 May 10.1 23:40:57 10° SW 23:48:31 26° S 23:59:05 10° ESE visible
21 May 10.4 01:47:59 10° WSW 01:56:51 25° SSW 02:08:24 10° SSE visible
21 May 11.0 03:58:48 10° WSW 04:05:25 14° SSW 04:12:46 10° S visible
21 May 10.0 21:48:16 10° SSW 21:53:17 18° SSE 21:59:47 10° ESE visible
21 May 10.1 23:53:11 10° SW 00:00:37 26° S 00:10:59 10° SE visible
22 May 10.5 02:00:41 10° WSW 02:08:58 22° SSW 02:19:30 10° SSE visible
22 May 11.0 04:14:35 10° SW 04:17:22 11° SW 04:20:16 10° SSW visible
22 May 10.0 22:00:04 10° SSW 22:05:16 19° SSE 22:12:10 10° ESE visible
23 May 10.1 00:05:30 10° SW 00:12:45 25° S 00:22:43 10° SE visible
23 May 10.6 02:13:37 10° WSW 02:21:04 19° SSW 02:30:15 10° SSE visible
23 May 9.9 22:12:01 10° SSW 22:17:18 20° SSE 22:24:23 10° SE visible
24 May 10.2 00:17:57 10° SW 00:24:53 23° S 00:29:14 19° SSE visible
24 May 10.7 02:27:00 10° SW 02:37:49 13° S 02:40:26 10° S visible
24 May 9.9 22:24:07 10° SSW 22:29:22 20° S 22:36:27 10° SE visible
25 May 10.2 00:30:33 10° SW 00:37:02 20° S 00:38:24 20° S visible
25 May11.002:53:50S02:53:50S02:39:14SWvisible
25 May 9.9 22:36:21 10° SW 22:41:29 19° S 22:47:47 11° SE visible
26 May 10.3 00:43:23 10° SW 00:48:39 17° SSW 00:48:39 17° SSW visible
26 May 10.0 22:48:43 10° SW 22:53:38 18° S 22:58:23 13° SSE visible
27 May 10.5 00:56:35 10° SW 00:59:17 14° SSW 00:59:17 14° SSW visible
27 May 10.1 23:01:16 10° SW 23:05:47 17° S 23:09:13 14° SSE visible
